Regional Weather Roundup
Issued by NWS

Home | Current Version | Previous Version | Graphics & Text | Print | Product List | Glossary On
Versions: 1 2 3 4 5 6 7 8 9 10 11 12 13 14 15 16 17 18 19 20 21 22 23 24 25 26 27 28 29 30 31 32 33 34 35 36 37 38 39 40 41 42 43 44 45 46 47 48 49 50
000
ASUS43 KLMK 241110
RWRKY
KENTUCKY REGIONAL WEATHER ROUNDUP
NATIONAL WEATHER SERVICE LOUISVILLE KY
700 AM EDT MON JUL 24 2017

NOTE "FAIR" INDICATES FEW OR NO CLOUDS BELOW 12,000 FEET
WITH NO SIGNIFICANT WEATHER AND/OR OBSTRUCTIONS TO VISIBILITY.

KYZ001>023-026-027-061>063-070>075-241200-
WESTERN AND SOUTH CENTRAL KENTUCKY

CITY           SKY/WX    TMP DP  RH WIND       PRES   REMARKS
PADUCAH        PTCLDY    73  69  87 CALM      29.90R
HENDERSON      CLEAR     69  68  96 CALM      29.91R
OWENSBORO      CLEAR     72  69  90 CALM      29.92R
HOPKINSVILLE   CLOUDY    73  71  94 SW6       29.93R
BOWLING GREEN  MOCLDY    70  70 100 CALM      29.94R
GLASGOW        MOCLDY   N/A N/A N/A CALM      29.94S
$$

KYZ024-025-028>034-038-045-046-053-241200-
NORTH CENTRAL KENTUCKY

CITY           SKY/WX    TMP DP  RH WIND       PRES   REMARKS
LOUISVILLE/SDF MOCLDY    75  71  87 SW7       29.90R
LOUISVILLE/LOU CLEAR     74  73  97 S3        29.90S
FORT KNOX      MOCLDY    69  69 100 CALM      29.91R FOG
$$

KYZ035>037-039>044-047>052-055>060-089>105-241200-
NORTHEAST KENTUCKY

CITY           SKY/WX    TMP DP  RH WIND       PRES   REMARKS
LEXINGTON      CLEAR     70  68  93 SW7       29.93R FOG
COVINGTON      PTCLDY    70  70 100 W7        29.89R
FRANKFORT      CLEAR     72  68  87 SW6       29.91R
$$

KYZ054-064>069-076>088-106>120-241200-
SOUTHEAST KENTUCKY

CITY           SKY/WX    TMP DP  RH WIND       PRES   REMARKS
JACKSON        CLOUDY    69  68  96 CALM      29.95R FOG
LONDON         MOCLDY    69  67  93 CALM      29.96R
SOMERSET       CLEAR     68  68 100 CALM      29.97R
MIDDLESBORO    CLOUDY    69  69 100 CALM      29.97S
MONTICELLO     MOSUNNY   66  66 100 VRB7      29.98R FOG
$$




USA.gov is the U.S. government's official web portal to all federal, state and local government web resources and services.